FENGYUN 2E

Last updated on Sat Apr 13 2024 01:02:16 GMT+0100 (British Summer Time)

1 33463U 08066A 24103.22775345 -.00000256 00000+0 00000+0 0 9996 2 33463 7.4349 61.0778 0001864 16.4004 172.2399 0.99122822 56112
UTC large
Height (km)
Speed (km/s)
/
Latitude / Longitude
Inclination (degrees)
Orbital Period (minutes)
Azimuth
Elevation
Range (km)
Doppler Factor

Next 0 passes for location: London (51.5072 / 0.1276)

Sorry there are no passes over London.